[[{"header":{"parameterUnit":"m.s-1","parameterCategory":1,"la1":30.2991,"la2":30.254,"lo1":-89.0895,"lo2":-89.0444,"dy":0.0017,"dx":0.0017,"nx":28,"ny":28,"refTime":"2025-08-17T21:00:00:Z","depth":0,"parameterNumber":2,"parameterNumberName":"U-component_of_WINDS"},"data":[0,0,0,0,0,0,0,0,0,0,0,0,0,0,0,0,0,0,0,0,0,0,0,0,0,0,0,0,0,0,0,0,0,0,0,0,0,0,0,0,0,0,0,0,0,0,0,0,0,0,0,0,0,0,0,0,0,0,-0.0007,-0.0006,0,0.0051,0.0052,0.0052,0.0103,0.0104,0.0104,0.0105,0.0163,0.0164,0.0165,0,0,0,0,0,0,0,0,0,0,0,0,0,-0.0072,-0.0071,-0.0007,-0.0006,-0.0005,0.0051,0.0052,0.0052,0.0103,0.0104,0.0105,0.0105,0.0163,0.0164,0.0165,0,0,0,0,0,0,0,0,0,0,0,0,0,-0.0032,-0.0071,-0.0007,0.0027,0.003,0.0051,0.0052,0.0053,0.0103,0.0104,0.0105,0.0106,0.0162,0.0164,0.0165,0.0157,0,0,0.017,0.017,0,0,0,0,0,0,0,0,-0.0035,-0.003,0.0021,0.0024,0.0028,0.0071,0.005,0.0087,0.0103,0.0075,0.0105,0.0106,0.0132,0.0136,0.0145,0.0159,0.0162,0.017,0.0171,0.0172,0.0172,0,0,0,0,0,0,0,-0.0037,-0.0032,0.0016,0.0022,0.0026,0.0039,0.0046,0.0057,0.0098,0.0078,0.0082,0.0088,0.0134,0.0143,0.0146,0.0163,0.017,0.0171,0.0172,0.0173,0.0176,0.0175,0,0,0,0,0,0,-0.0045,-0.0035,0.0014,0.0018,-0.0001,0.004,0.0047,0.0056,0.0098,0.0105,0.0087,0.009,0.014,0.0144,0.0148,0.0142,0.0172,0.0173,0.0174,0.0177,0.0176,0.0175,0,0,0,0,0,0,-0.0047,-0.0041,0.0012,-0.0007,0.0,0.004,0.005,0.0057,0.0066,0.0105,0.0112,0.0089,0.0141,0.0146,0.0155,0.0145,0.0174,0.0175,0.0178,0.0176,0.0175,0.0128,0,0,0,0,0,0,-0.0049,-0.0042,-0.0046,-0.0008,0.0001,0.0016,0.0049,0.0057,0.0069,0.0073,0.0108,0.0115,0.0142,0.0152,0.0156,0.0147,0.0176,0.0179,0.0177,0.0176,0.0131,0.0126,0.0121,0,0,0,0,0,-0.0052,-0.0062,-0.0046,-0.0041,-0.0002,0.0016,0.0021,0.0052,0.0068,0.0065,0.009,0.0114,0.0146,0.0153,0.0158,0.0149,0.0179,0.0177,0.0176,0.0133,0.0127,0.0121,0,0,0,0,0,0,-0.0103,-0.0057,-0.0039,-0.0037,-0.0015,0.0024,0.0021,0.0044,0.0062,0.0065,0.0104,0.0111,0.0116,0.0134,0.0141,0.0144,0.0166,0.0165,0.0132,0.0126,0.0121,0.0116,0.0177,0,0,0,0,0,-0.0114,-0.0104,-0.0063,-0.0066,-0.0055,-0.0019,-0.001,0.0013,0.0037,0.0047,0.0072,0.0095,0.0111,0.0119,0.0136,0.0135,0.0143,0.0131,0.0126,0.0122,0.012,0.0123,0.0118,0.0169,0.0169,0.0169,0,0,-0.0138,-0.011,-0.0106,-0.0075,-0.0056,-0.0045,-0.0011,-0.0002,0.0006,0.0048,0.0057,0.0078,0.0106,0.011,0.0113,0.0125,0.0109,0.012,0.0116,0.0117,0.012,0.0115,0.0111,0.0168,0.0168,0.0168,0,0,-0.0174,-0.0153,-0.0152,-0.0132,-0.0102,-0.0077,-0.0077,-0.004,-0.0025,-0.0015,0.0017,0.0029,0.0054,0.0073,0.0086,0.006,0.0082,0.0064,0.0038,0.0039,0.0035,0.0032,0.0023,0.0019,0.0062,0.0062,0.0062,0,-0.0208,-0.019,-0.0155,-0.0147,-0.0134,-0.0094,-0.0092,-0.0074,-0.0041,-0.0033,-0.0019,0.0015,0.0036,0.0046,0.004,0.0049,0.0051,0.0059,0.0033,0.003,0.0028,0.0019,0.0016,0.006,0.006,0.006,0.0061,0,-0.0232,-0.022,-0.0223,-0.0191,-0.0177,-0.0173,-0.0136,-0.0127,-0.0104,-0.008,-0.0069,-0.0041,-0.0018,-0.0013,0.0008,0.0,0.0007,0.0026,0.0049,0.002,0.0013,0.001,0.0056,0.0057,0.0058,0.0059,0,0,-0.0303,-0.0248,-0.025,-0.0234,-0.0196,-0.0186,-0.0179,-0.0155,-0.0148,-0.0125,-0.0118,-0.0096,-0.0076,-0.0062,-0.0037,-0.0036,-0.0057,-0.0016,-0.0015,-0.0025,-0.0063,-0.0079,-0.0083,-0.0041,-0.0041,-0.0041,-0.0065,0,-0.0334,-0.0319,-0.0285,-0.028,-0.0268,-0.0228,-0.0222,-0.0197,-0.0174,-0.016,-0.0134,-0.0119,-0.0095,-0.0086,-0.0082,-0.0055,-0.0064,-0.0053,-0.0033,-0.0033,-0.0043,-0.0087,-0.0104,-0.0128,-0.0068,-0.0068,-0.0069,0,-0.0369,-0.0348,-0.0342,-0.0302,-0.0296,-0.0291,-0.0265,-0.0253,-0.0223,-0.0206,-0.0188,-0.0161,-0.0149,-0.0127,-0.0111,-0.0104,-0.0094,-0.0079,-0.0079,-0.0077,-0.0054,-0.0087,-0.0135,-0.0139,-0.0073,-0.0072,-0.0072,0,-0.0422,-0.0391,-0.0383,-0.037,-0.0325,-0.0321,-0.0302,-0.0272,-0.0259,-0.0236,-0.0228,-0.0204,-0.0192,-0.0174,-0.014,-0.0127,-0.0127,-0.0103,-0.0112,-0.0113,-0.0116,-0.0117,-0.0164,-0.0108,-0.0108,-0.0108,-0.0107,0,-0.0461,-0.0459,-0.0406,-0.0401,-0.0396,-0.0357,-0.0353,-0.033,-0.0303,-0.0292,-0.0256,-0.0247,-0.0202,-0.0187,-0.0161,-0.0151,-0.0145,-0.0131,-0.0124,-0.0135,-0.0137,-0.0129,-0.0126,-0.0108,-0.0108,-0.0108,-0.0108,0,-0.052,-0.0485,-0.0473,-0.0429,-0.0418,-0.0417,-0.0379,-0.0373,-0.0346,-0.0333,-0.0327,-0.0285,-0.0266,-0.023,-0.02,-0.0182,-0.0178,-0.0165,-0.0188,-0.0184,-0.0196,-0.0195,-0.0241,-0.0244,-0.0185,-0.0186,-0.0186,0,-0.0549,-0.0546,-0.0501,-0.0491,-0.0473,-0.0457,-0.0443,-0.0403,-0.039,-0.0355,-0.0352,-0.0329,-0.0309,-0.0279,-0.0246,-0.0223,-0.021,-0.0227,-0.0206,-0.0217,-0.021,-0.0211,-0.0211,-0.0233,-0.0234,-0.0234,-0.0235,0,-0.0602,-0.0584,-0.0565,-0.054,-0.0524,-0.0502,-0.0478,-0.0472,-0.0426,-0.0413,-0.0392,-0.0376,-0.0345,-0.0323,-0.0294,-0.0273,-0.0246,-0.0241,-0.0242,-0.0254,-0.0267,-0.026,-0.0202,-0.0241,-0.024,-0.024,-0.0239,-0.0239,-0.0647,-0.0642,-0.0609,-0.0589,-0.0566,-0.0544,-0.0535,-0.0506,-0.0488,-0.0459,-0.0436,-0.0416,-0.0385,-0.0343,-0.0324,-0.0307,-0.0295,-0.0297,-0.0297,-0.0298,-0.0303,-0.0268,-0.0302,-0.0302,-0.0301,-0.0301,-0.0301,0,-0.0699,-0.0675,-0.0657,-0.0624,-0.0607,-0.0582,-0.0553,-0.0542,-0.0525,-0.0497,-0.0477,-0.0452,-0.0429,-0.0393,-0.0367,-0.0361,-0.0348,-0.0356,-0.0357,-0.0352,-0.0315,-0.0317,-0.0367,-0.0367,-0.0367,-0.0367,-0.0367,-0.0367,-0.0724,-0.0714,-0.0691,-0.0668,-0.0644,-0.0625,-0.0611,-0.0589,-0.0567,-0.054,-0.0521,-0.0497,-0.0465,-0.0436,-0.0414,-0.0404,-0.0396,-0.0408,-0.0394,-0.0361,-0.0355,-0.0349,-0.035,-0.0406,-0.0407,-0.0432,-0.0432,-0.0432]},{"header":{"parameterUnit":"m.s-1","parameterCategory":1,"la1":30.2991,"la2":30.254,"lo1":-89.0895,"lo2":-89.0444,"dy":0.0017,"dx":0.0017,"nx":28,"ny":28,"refTime":"2025-08-17T21:00:00:Z","depth":0,"parameterNumber":3,"parameterNumberName":"V-component_of_WINDS"},"data":[0,0,0,0,0,0,0,0,0,0,0,0,0,0,0,0,0,0,0,0,0,0,0,0,0,0,0,0,0,0,0,0,0,0,0,0,0,0,0,0,0,0,0,0,0,0,0,0,0,0,0,0,0,0,0,0,0,0,-2.749,-2.7491,0,-2.7564,-2.7564,-2.7565,-2.7542,-2.754,-2.7539,-2.7537,-2.761,-2.7613,-2.7616,0,0,0,0,0,0,0,0,0,0,0,0,0,-2.7328,-2.7331,-2.749,-2.7491,-2.7492,-2.7563,-2.7564,-2.7565,-2.7542,-2.754,-2.7538,-2.7537,-2.7609,-2.7613,-2.7617,0,0,0,0,0,0,0,0,0,0,0,0,0,-2.7399,-2.7332,-2.749,-2.7489,-2.749,-2.7563,-2.7564,-2.7566,-2.7543,-2.754,-2.7538,-2.7536,-2.7607,-2.7612,-2.7617,-2.7695,0,0,-2.7633,-2.7635,0,0,0,0,0,0,0,0,-2.7395,-2.7405,-2.7488,-2.7489,-2.749,-2.7541,-2.7534,-2.7609,-2.7543,-2.7523,-2.7537,-2.7535,-2.7589,-2.7595,-2.7614,-2.7698,-2.7701,-2.7633,-2.7636,-2.7638,-2.764,0,0,0,0,0,0,0,-2.739,-2.7402,-2.7519,-2.749,-2.7491,-2.7484,-2.7492,-2.7548,-2.7568,-2.7524,-2.7523,-2.7532,-2.7589,-2.7609,-2.7615,-2.7702,-2.7633,-2.7637,-2.764,-2.7642,-2.7854,-2.7856,0,0,0,0,0,0,-2.7385,-2.7398,-2.7517,-2.7521,-2.7436,-2.7489,-2.7498,-2.7527,-2.7567,-2.7571,-2.7534,-2.753,-2.7601,-2.7609,-2.7618,-2.7711,-2.7638,-2.7643,-2.7646,-2.7851,-2.7854,-2.7857,0,0,0,0,0,0,-2.7382,-2.7396,-2.7514,-2.7459,-2.7474,-2.7494,-2.7528,-2.753,-2.755,-2.7574,-2.7577,-2.7551,-2.76,-2.7611,-2.7676,-2.7713,-2.7645,-2.765,-2.7848,-2.7852,-2.7856,-2.7898,0,0,0,0,0,0,-2.7377,-2.7395,-2.7425,-2.746,-2.7477,-2.7572,-2.753,-2.7533,-2.7559,-2.7556,-2.7591,-2.7595,-2.7599,-2.7669,-2.7681,-2.7719,-2.7654,-2.7845,-2.785,-2.7855,-2.7894,-2.7903,-2.7911,0,0,0,0,0,-2.7372,-2.7434,-2.7427,-2.7441,-2.7515,-2.7574,-2.7583,-2.7588,-2.7562,-2.7593,-2.7608,-2.7594,-2.7707,-2.7675,-2.7689,-2.7729,-2.7843,-2.7849,-2.7854,-2.789,-2.7901,-2.7911,0,0,0,0,0,0,-2.7401,-2.7438,-2.7431,-2.7507,-2.7538,-2.757,-2.7608,-2.76,-2.7637,-2.7632,-2.7635,-2.7643,-2.771,-2.7726,-2.769,-2.7806,-2.7771,-2.778,-2.7793,-2.7805,-2.7813,-2.7807,-2.7658,0,0,0,0,0,-2.7417,-2.7462,-2.7492,-2.7556,-2.7572,-2.7587,-2.7613,-2.7614,-2.7645,-2.7658,-2.7678,-2.7708,-2.7751,-2.7779,-2.7819,-2.7896,-2.7903,-2.793,-2.7939,-2.7946,-2.7954,-2.7995,-2.8007,-2.7876,-2.7876,-2.7876,0,0,-2.7449,-2.7475,-2.7503,-2.7562,-2.7586,-2.7632,-2.7598,-2.7648,-2.7682,-2.7665,-2.7728,-2.7744,-2.7778,-2.785,-2.7882,-2.7865,-2.7992,-2.7954,-2.7959,-2.7963,-2.8002,-2.8014,-2.8025,-2.788,-2.788,-2.7879,0,0,-2.7531,-2.7556,-2.7612,-2.7637,-2.7674,-2.7684,-2.7697,-2.7731,-2.7742,-2.7805,-2.7793,-2.7833,-2.7906,-2.7931,-2.7953,-2.8046,-2.8033,-2.8059,-2.8104,-2.8144,-2.8155,-2.8164,-2.8196,-2.8208,-2.8066,-2.8066,-2.8066,0,-2.7566,-2.7636,-2.7641,-2.7692,-2.7718,-2.7706,-2.7762,-2.7786,-2.7834,-2.7852,-2.7832,-2.7924,-2.7946,-2.8023,-2.8046,-2.8064,-2.8079,-2.8054,-2.8153,-2.8162,-2.8171,-2.8201,-2.8214,-2.8069,-2.8069,-2.8068,-2.8068,0,-2.7677,-2.7726,-2.7766,-2.7814,-2.7844,-2.7898,-2.791,-2.794,-2.7939,-2.7951,-2.8015,-2.8042,-2.8087,-2.8105,-2.8104,-2.8182,-2.817,-2.8152,-2.8117,-2.8186,-2.8215,-2.8227,-2.8073,-2.8072,-2.8071,-2.807,0,0,-2.7779,-2.7829,-2.7844,-2.7865,-2.7906,-2.7943,-2.7996,-2.8041,-2.8067,-2.81,-2.8144,-2.8207,-2.819,-2.8215,-2.8217,-2.8252,-2.8323,-2.823,-2.823,-2.8245,-2.841,-2.8422,-2.8436,-2.8316,-2.8318,-2.832,-2.8406,0,-2.7863,-2.7957,-2.7963,-2.8047,-2.8092,-2.8081,-2.8127,-2.8156,-2.8169,-2.8208,-2.8222,-2.8266,-2.8242,-2.8257,-2.8291,-2.8307,-2.8356,-2.8301,-2.8355,-2.8357,-2.8346,-2.8451,-2.8464,-2.8545,-2.8418,-2.842,-2.8421,0,-2.7974,-2.8013,-2.8102,-2.8136,-2.8155,-2.8196,-2.8238,-2.8276,-2.8309,-2.8315,-2.8344,-2.834,-2.8394,-2.8357,-2.843,-2.8393,-2.8415,-2.8426,-2.8429,-2.8434,-2.8392,-2.8457,-2.8571,-2.8583,-2.8439,-2.8438,-2.8436,0,-2.8039,-2.8112,-2.8175,-2.8194,-2.8235,-2.8264,-2.8283,-2.8314,-2.8341,-2.8377,-2.8395,-2.8437,-2.846,-2.8492,-2.85,-2.8473,-2.8572,-2.8536,-2.8578,-2.8578,-2.8598,-2.8597,-2.8717,-2.8615,-2.8615,-2.8615,-2.8614,0,-2.8132,-2.8186,-2.8204,-2.8243,-2.8303,-2.831,-2.8369,-2.8386,-2.8413,-2.8454,-2.8448,-2.8486,-2.8494,-2.8534,-2.854,-2.8599,-2.861,-2.8616,-2.8616,-2.8616,-2.8615,-2.863,-2.8624,-2.8618,-2.8617,-2.8617,-2.8616,0,-2.8213,-2.8228,-2.8295,-2.8329,-2.8339,-2.8382,-2.8411,-2.8448,-2.846,-2.8512,-2.8524,-2.8544,-2.859,-2.8601,-2.8656,-2.8661,-2.873,-2.8726,-2.8719,-2.8718,-2.8759,-2.8755,-2.8892,-2.8909,-2.8797,-2.8798,-2.8799,0,-2.8271,-2.8313,-2.8352,-2.838,-2.84,-2.8444,-2.8472,-2.848,-2.8509,-2.855,-2.8581,-2.8627,-2.8664,-2.8739,-2.8757,-2.8799,-2.8795,-2.884,-2.8801,-2.8799,-2.8794,-2.8791,-2.8795,-2.8847,-2.8848,-2.8849,-2.885,0,-2.8372,-2.8377,-2.8418,-2.8462,-2.8495,-2.853,-2.8562,-2.8585,-2.8598,-2.8631,-2.8679,-2.8708,-2.8764,-2.881,-2.8852,-2.887,-2.8862,-2.8863,-2.8874,-2.8873,-2.8867,-2.887,-2.8738,-2.8859,-2.8858,-2.8857,-2.8857,-2.8857,-2.8442,-2.8479,-2.8513,-2.8558,-2.8584,-2.8615,-2.8651,-2.8669,-2.8709,-2.8757,-2.8759,-2.8811,-2.8843,-2.8899,-2.892,-2.896,-2.8946,-2.8963,-2.8967,-2.8971,-2.8974,-2.8862,-2.8968,-2.8968,-2.8967,-2.8967,-2.8967,0,-2.8542,-2.8563,-2.8606,-2.8652,-2.8688,-2.8679,-2.8715,-2.8745,-2.8792,-2.8822,-2.8859,-2.8914,-2.8959,-2.8981,-2.9024,-2.9052,-2.905,-2.9063,-2.9061,-2.9065,-2.8985,-2.897,-2.9065,-2.9065,-2.9065,-2.9065,-2.9065,-2.9065,-2.8598,-2.8659,-2.8669,-2.8743,-2.8763,-2.8815,-2.8836,-2.8865,-2.8889,-2.8951,-2.8989,-2.9003,-2.9031,-2.9076,-2.9116,-2.9121,-2.9137,-2.9153,-2.9156,-2.908,-2.907,-2.9061,-2.9047,-2.9156,-2.9156,-2.9232,-2.9233,-2.9234]}]]